Waarnemingen

Advertentie
Mijn weer
Skillinge, Zweden (2625): temperatuur & dauwpunt: 12.01.2021 05:00:00 - 18.01.2021 05:00:00 (CET)Skillinge, Zweden (2625): windsnelheid & windstoten: 12.01.2021 05:00:00 - 18.01.2021 05:00:00 (CET)Skillinge, Zweden (2625): windrichting: 12.01.2021 05:00:00 - 18.01.2021 05:00:00 (CET)Skillinge, Zweden (2625): luchtdruk: 12.01.2021 05:00:00 - 18.01.2021 05:00:00 (CET)Skillinge, Zweden (2625): zicht: 12.01.2021 05:00:00 - 18.01.2021 05:00:00 (CET)Skillinge, Zweden (2625): neerslag: 12.01.2021 05:00:00 - 18.01.2021 05:00:00 (CET)
Datum & Tijd tt [°C] td [°C] ff [km/u] ff [kn] fx [km/u] fx [kn] dd ppp [hPa] vv [km] rr [mm]
18.01.2021 05:00:00 - - - - - - - - - -
18.01.2021 04:00:00 0,5 -1,6 13 7 20 11 ZW 1019,1 20 0,0
18.01.2021 03:00:00 -0,5 -1,5 8 5 13 7 W 1019,3 3,7 0,1
18.01.2021 02:00:00 -0,4 -2,6 11 6 18 10 W 1019,8 12 -
18.01.2021 01:00:00 0,7 -3,4 11 6 21 11 ZW 1020,1 16 0,0
18.01.2021 00:00:00 0,7 -2,9 16 9 26 14 ZW 1020,4 11 -
17.01.2021 23:00:00 0,5 -2,9 15 8 29 16 ZW 1020,6 14 0,0
17.01.2021 22:00:00 0,3 -3,7 14 8 30 16 ZW 1020,8 31 -
17.01.2021 21:00:00 0,7 -3,4 22 12 29 16 ZZW 1021,0 42 0,0
17.01.2021 20:00:00 0,5 -4,1 19 11 26 14 ZZW 1021,2 50 0,0
17.01.2021 19:00:00 0,4 -4,1 20 11 25 14 ZZW 1021,3 50 0,0
17.01.2021 18:00:00 0,3 -3,8 16 9 22 12 ZZW 1021,3 50 0,0
17.01.2021 17:00:00 0,1 -3,5 12 6 22 12 ZW 1021,1 48 0,0
17.01.2021 16:00:00 0,2 -3,6 14 8 23 12 ZZW 1020,8 34 0,0
17.01.2021 15:00:00 0,1 -3,1 17 9 25 13 ZZW 1020,5 13 0,0
17.01.2021 14:00:00 0,3 -2,6 13 7 22 12 ZW 1020,4 21 0,0
17.01.2021 13:00:00 0,1 -2,4 15 8 24 13 ZW 1020,6 12 0,0
17.01.2021 12:00:00 0,3 -1,8 24 13 31 17 ZW 1020,6 4,9 0,1
17.01.2021 11:00:00 0,8 -1,6 16 9 24 13 ZZW 1020,4 14 -
17.01.2021 10:00:00 0,8 -1,6 16 9 24 13 ZZW 1019,9 26 -
17.01.2021 09:00:00 1,1 -2,0 11 6 22 12 ZZO 1019,4 36 -
17.01.2021 08:00:00 1,4 -2,0 16 9 24 13 ZO 1019,1 35 0,0
17.01.2021 07:00:00 1,6 -1,6 11 6 26 14 ZO 1018,6 9 0,1
17.01.2021 06:00:00 2,0 -2,7 16 9 29 16 OZO 1018,2 25 -
17.01.2021 05:00:00 1,9 -3,6 16 9 29 16 OZO 1018,0 48 0,0
17.01.2021 04:00:00 1,8 -3,9 22 12 28 15 O 1018,0 50 0,0
17.01.2021 03:00:00 1,9 -0,4 22 12 26 14 O 1018,1 50 0,1
17.01.2021 02:00:00 -1,2 -1,5 7 4 11 6 N 1018,4 20 0,0
17.01.2021 01:00:00 -1,1 -1,4 8 5 20 11 N 1018,6 3,6 0,4
17.01.2021 00:00:00 -1,8 -2,2 11 6 16 8 NNW 1018,7 27 0,0
16.01.2021 23:00:00 -1,8 -2,2 9 5 13 7 NNW 1018,5 1,4 0,4
16.01.2021 22:00:00 -1,3 -2,4 10 5 18 10 NNW 1018,6 2,5 0,1
16.01.2021 21:00:00 -1,1 -3,0 8 4 20 11 N 1018,5 50 0,0
16.01.2021 20:00:00 -1,5 -3,7 12 6 22 12 N 1018,6 50 0,0
16.01.2021 19:00:00 -1,8 -4,5 11 6 21 12 N 1018,7 50 0,0
16.01.2021 18:00:00 -2,1 -5,4 10 5 18 10 NNW 1018,9 50 0,0
16.01.2021 17:00:00 -2,6 -6,2 10 6 20 11 NNW 1018,7 50 0,0
16.01.2021 16:00:00 -2,5 -6,1 15 8 24 13 NW 1018,5 27 0,0
16.01.2021 15:00:00 -1,9 -6,3 19 11 29 16 WNW 1018,5 50 0,0
16.01.2021 14:00:00 -0,1 -6,5 18 10 29 15 NW 1018,5 50 0,0
16.01.2021 13:00:00 -0,5 -6,5 16 9 22 12 NW 1019,2 50 0,0
16.01.2021 12:00:00 -1,4 -6,0 11 6 19 10 WNW 1019,8 50 0,0
16.01.2021 11:00:00 -3,2 -7,0 13 7 23 12 NW 1020,8 48 0,0
16.01.2021 10:00:00 -4,7 -7,8 12 6 16 9 NW 1021,1 50 0,0
16.01.2021 09:00:00 -7,1 -9,3 10 5 26 14 NW 1021,5 50 0,0
16.01.2021 08:00:00 -7,8 -10,2 14 8 22 12 WNW 1022,1 50 0,0
16.01.2021 07:00:00 -8,2 -10,3 10 6 15 8 NW 1022,6 50 0,0
16.01.2021 06:00:00 -8,6 -10,7 11 6 16 9 WNW 1023,4 50 0,0
16.01.2021 05:00:00 -8,4 -10,5 8 5 16 8 WNW 1023,8 50 0,0
16.01.2021 04:00:00 -8,7 -10,6 12 7 16 8 NW 1024,2 50 0,0
16.01.2021 03:00:00 -8,6 -10,7 11 6 14 7 NW 1024,5 50 0,0
16.01.2021 02:00:00 -8,2 -10,1 10 5 15 8 NW 1024,9 50 0,0
16.01.2021 01:00:00 -7,9 -10,1 12 6 15 8 NW 1025,2 50 0,0
16.01.2021 00:00:00 -7,4 -9,6 12 6 16 9 NW 1025,4 50 0,0
15.01.2021 23:00:00 -6,7 -9,3 12 6 19 10 NNW 1025,5 50 0,0
15.01.2021 22:00:00 -6,0 -9,0 13 7 19 10 NNW 1025,6 50 0,0
15.01.2021 21:00:00 -5,8 -9,0 14 7 20 11 NNW 1025,6 50 0,0
15.01.2021 20:00:00 -5,5 -8,9 15 8 22 12 NW 1025,5 50 0,0
15.01.2021 19:00:00 -5,4 -8,6 14 8 23 12 NNW 1025,5 50 0,0
15.01.2021 18:00:00 -5,2 -8,4 15 8 23 12 NW 1025,3 50 0,0
15.01.2021 17:00:00 -5,2 -8,3 14 7 18 10 NW 1025,0 50 0,0
15.01.2021 16:00:00 -5,2 -8,5 12 7 26 14 NNW 1024,8 50 0,0
15.01.2021 15:00:00 -4,1 -7,5 15 8 26 14 N 1024,5 50 0,0
15.01.2021 14:00:00 -4,0 -7,6 16 9 29 16 N 1024,4 47 0,0
15.01.2021 13:00:00 -4,0 -7,3 14 8 26 14 N 1024,4 50 0,0
15.01.2021 12:00:00 -4,4 -7,2 14 7 27 14 NNW 1024,6 50 0,0
15.01.2021 11:00:00 -4,6 -7,2 16 8 28 15 N 1024,4 50 0,0
15.01.2021 10:00:00 -4,6 -7,1 16 9 31 17 N 1024,0 50 0,0
15.01.2021 09:00:00 -5,1 -7,5 13 7 22 12 N 1023,5 50 0,0
15.01.2021 08:00:00 -4,9 -7,7 15 8 30 16 N 1023,0 50 0,0
15.01.2021 07:00:00 -4,2 -7,0 19 10 34 19 N 1022,6 50 0,0
15.01.2021 06:00:00 -3,5 -7,3 21 11 34 19 N 1022,3 50 0,0
15.01.2021 05:00:00 -2,7 -6,2 20 11 34 19 N 1022,3 50 0,0
15.01.2021 04:00:00 -1,8 -6,0 19 10 32 17 N 1022,0 50 0,0
15.01.2021 03:00:00 -1,4 -4,6 14 8 27 15 N 1021,8 50 0,0
15.01.2021 02:00:00 -1,5 -3,8 12 7 21 11 N 1021,5 50 0,0
15.01.2021 01:00:00 -1,4 -3,9 13 7 21 11 NNW 1021,5 50 0,0
15.01.2021 00:00:00 -0,7 -3,9 14 8 26 14 N 1021,6 50 0,0
14.01.2021 23:00:00 -0,6 -4,1 19 10 33 18 N 1021,5 50 0,0
14.01.2021 22:00:00 -0,7 -3,9 16 9 29 16 N 1021,2 50 0,0
14.01.2021 21:00:00 -0,5 -4,1 15 8 29 16 N 1021,1 50 0,0
14.01.2021 20:00:00 -0,8 -4,1 15 8 40 22 N 1021,2 50 0,0
14.01.2021 19:00:00 -0,2 -3,6 21 11 40 21 NNO 1020,6 50 0,0
14.01.2021 18:00:00 0,2 -3,5 22 12 38 20 NNO 1020,7 50 0,0
14.01.2021 17:00:00 0,4 -2,5 16 8 29 16 N 1020,5 50 0,0
14.01.2021 16:00:00 1,0 -2,0 19 11 36 20 N 1019,9 50 0,0
14.01.2021 15:00:00 1,6 -1,8 21 11 50 27 NNO 1019,2 50 0,0
14.01.2021 14:00:00 1,9 -1,9 29 16 54 29 NNO 1018,1 46 0,0
14.01.2021 13:00:00 2,0 -1,3 23 13 43 23 NNO 1018,6 50 0,0
14.01.2021 12:00:00 1,9 -1,4 28 15 46 25 NNO 1018,1 50 0,0
14.01.2021 11:00:00 1,8 -0,5 25 13 42 23 N 1017,3 50 0,0
14.01.2021 10:00:00 2,3 0,1 23 13 46 25 NNO 1016,1 49 0,0
14.01.2021 09:00:00 2,2 0,4 21 11 40 22 N 1014,9 50 0,0
14.01.2021 08:00:00 2,0 -0,1 22 12 42 23 NNO 1013,8 50 0,0
14.01.2021 07:00:00 1,7 -0,4 23 12 41 22 N 1013,0 48 0,0
14.01.2021 06:00:00 1,7 -0,6 20 11 38 21 N 1012,1 50 0,0
14.01.2021 05:00:00 1,9 -0,2 19 11 35 19 N 1011,4 50 0,0
14.01.2021 04:00:00 1,7 -0,3 19 10 45 24 N 1010,6 50 0,0
14.01.2021 03:00:00 1,8 -0,8 29 16 45 25 NNO 1009,5 50 0,0
14.01.2021 02:00:00 1,7 -0,2 26 14 51 27 NNO 1008,2 50 0,0
14.01.2021 01:00:00 1,9 0,3 32 17 68 37 NNO 1007,0 50 0,6
14.01.2021 00:00:00 1,8 1,1 51 27 66 36 NO 1005,6 2,1 2,9
13.01.2021 23:00:00 2,3 1,3 49 26 62 34 NO 1004,2 4,7 0,2
13.01.2021 22:00:00 3,3 1,8 51 27 64 35 ONO 1002,3 15 -
13.01.2021 21:00:00 3,0 1,7 37 20 60 33 O 1000,5 14 0,1
13.01.2021 20:00:00 3,4 1,9 50 27 63 34 O 998,5 9 0,0
13.01.2021 19:00:00 3,1 1,8 30 16 37 20 O 997,0 46 0,0
13.01.2021 18:00:00 2,7 1,7 17 9 21 11 O 996,2 50 0,0
13.01.2021 17:00:00 2,1 1,4 16 9 19 10 ONO 995,5 50 0,1
13.01.2021 16:00:00 1,5 0,8 7 4 11 6 O 995,8 9 0,6
13.01.2021 15:00:00 1,3 0,6 4 2 27 15 NO 996,0 13 0,1
13.01.2021 14:00:00 2,4 1,7 24 13 32 18 ZW 996,2 20 0,8
13.01.2021 13:00:00 1,1 0,2 9 5 29 16 WZW 997,3 7 1,2
13.01.2021 12:00:00 1,8 1,1 19 11 31 17 ZW 998,1 9 1,0
13.01.2021 11:00:00 1,2 0,5 12 7 27 15 ZW 998,9 7 0,8
13.01.2021 10:00:00 1,7 0,3 12 6 23 12 W 999,2 7 0,0
13.01.2021 09:00:00 1,6 0,1 13 7 27 15 WZW 999,3 27 0,0
13.01.2021 08:00:00 1,3 0,0 14 8 23 13 W 999,3 28 0,0
13.01.2021 07:00:00 0,7 -0,5 14 8 24 13 W 999,3 21 0,0
13.01.2021 06:00:00 0,6 -0,5 12 7 22 12 W 999,4 22 0,0
13.01.2021 05:00:00 1,2 0,0 14 7 21 11 W 999,4 8 0,0
13.01.2021 04:00:00 0,5 -0,6 10 5 19 11 W 999,4 24 0,0
13.01.2021 03:00:00 0,7 -0,6 14 8 20 11 WZW 999,4 29 0,0
13.01.2021 02:00:00 0,7 -0,5 10 6 26 14 W 999,7 24 -
13.01.2021 01:00:00 0,4 -0,9 17 9 28 15 W 999,2 33 0,0
13.01.2021 00:00:00 -0,3 -1,4 14 8 23 12 W 999,3 32 0,0
12.01.2021 23:00:00 -0,9 -1,7 11 6 17 9 W 999,1 44 0,0
12.01.2021 22:00:00 -1,0 -1,6 5 3 10 5 ZW 999,1 50 0,0
12.01.2021 21:00:00 -1,1 -1,7 6 3 8 5 ZW 998,7 30 0,0
12.01.2021 20:00:00 -1,5 -2,2 0 0 5 3 N 998,6 23 0,0
12.01.2021 19:00:00 -0,1 -0,9 5 3 12 6 W 998,0 50 0,0
12.01.2021 18:00:00 0,5 -0,4 5 3 16 9 W 997,8 45 0,8
12.01.2021 17:00:00 1,3 -0,2 8 4 11 6 W 997,6 39 0,0
12.01.2021 16:00:00 0,8 -1,2 5 3 19 11 WZW 997,7 49 0,0
12.01.2021 15:00:00 2,7 -0,2 11 6 24 13 WZW 997,5 50 0,0
12.01.2021 14:00:00 3,1 -0,5 13 7 25 14 WZW 997,4 49 0,0
12.01.2021 13:00:00 3,2 -0,3 14 8 23 13 W 997,4 50 0,0
12.01.2021 12:00:00 2,6 0,2 13 7 22 12 W 997,7 50 0,0
12.01.2021 11:00:00 1,2 -0,1 7 4 10 6 WZW 997,8 36 0,0
12.01.2021 10:00:00 0,2 -1,3 5 3 8 4 ZW 997,6 38 0,0
12.01.2021 09:00:00 0,4 -1,4 7 4 18 10 WNW 996,9 50 0,0
12.01.2021 08:00:00 1,3 -0,9 15 8 28 15 WNW 996,1 50 0,0
12.01.2021 07:00:00 2,2 0,4 17 9 26 14 W 995,3 50 0,0
12.01.2021 06:00:00 2,6 1,3 11 6 50 27 WNW 994,2 50 0,1
12.01.2021 05:00:00 5,1 4,2 34 18 63 34 WZW 993,0 6 2,1

tt = temperatuur
td = dauwpunt
ff = windsnelheid
fx = windstoten
dd = windrichting
ppp = luchtdruk
vv = zicht
rr = neerslag

Weerstations in de omgeving